SXS8DG LTBJ-EDLW

Flight info

Callsign SXS8DG
Flight time N/A
Altitude 38000
Route VEXOL1T/34R VEXOL UY134 NEMIS UL608 GIKAS/N0450F380 DCT FSK UN128 RUGAS DCT RAXAD DCT SOSEK DCT BABIT DCT SASAL DCT DEXIT DCT LULAR DCT KULOK DCT RUNEN DCT FULNO/N0450F300 T842 IDEWE/N0413F240 T842 ADEMI ADEMI2A
Aircraft B38M/M-SDE1FGHILORVWXY/HB1

Departure

Time 2026-05-06 15:26
Airport Adnan Menderes International Airport (LTBJ)

Arrival

Time N/A
Airport Dortmund Airport (EDLW)
Time Latitude Longitude Altitude Speed Heading
2026-05-06 14:51 38.29495 27.15001 414 ft 0 kts 256°
2026-05-06 15:16 38.29498 27.15016 414 ft 4 kts 253°
2026-05-06 15:16 38.29508 27.15048 411 ft 4 kts 236°
2026-05-06 15:16 38.29527 27.15069 409 ft 4 kts 196°
2026-05-06 15:16 38.29540 27.15070 411 ft 1 kts 165°
2026-05-06 15:20 38.29533 27.15072 409 ft 2 kts 165°
2026-05-06 15:20 38.29513 27.15079 414 ft 4 kts 165°
2026-05-06 15:21 38.29479 27.15090 414 ft 6 kts 165°
2026-05-06 15:21 38.29429 27.15107 411 ft 9 kts 165°
2026-05-06 15:21 38.29364 27.15127 413 ft 11 kts 168°
2026-05-06 15:21 38.29284 27.15148 408 ft 13 kts 168°
2026-05-06 15:22 38.29193 27.15176 409 ft 14 kts 166°
2026-05-06 15:22 38.29093 27.15207 412 ft 11 kts 166°
2026-05-06 15:22 38.29024 27.15235 412 ft 9 kts 133°
2026-05-06 15:22 38.28987 27.15301 413 ft 10 kts 155°
2026-05-06 15:23 38.28916 27.15326 415 ft 11 kts 167°
2026-05-06 15:23 38.28843 27.15348 414 ft 13 kts 167°
2026-05-06 15:23 38.28728 27.15382 418 ft 19 kts 167°
2026-05-06 15:23 38.28598 27.15422 418 ft 20 kts 166°
2026-05-06 15:24 38.28458 27.15464 418 ft 21 kts 167°
2026-05-06 15:24 38.28308 27.15510 414 ft 23 kts 166°
2026-05-06 15:24 38.28165 27.15553 418 ft 18 kts 167°
2026-05-06 15:24 38.28097 27.15588 417 ft 7 kts 104°
2026-05-06 15:25 38.28107 27.15658 420 ft 11 kts 77°
2026-05-06 15:25 38.28126 27.15760 413 ft 8 kts 76°
2026-05-06 15:25 38.28140 27.15806 416 ft 3 kts 32°
2026-05-06 15:25 38.28178 27.15801 417 ft 12 kts 346°
2026-05-06 15:26 38.28337 27.15751 414 ft 61 kts 347°
2026-05-06 15:26 38.29278 27.15466 419 ft 145 kts 345°
2026-05-06 15:26 38.30009 27.15262 558 ft 168 kts 347°
2026-05-06 15:26 38.31192 27.14926 1134 ft 182 kts 347°
2026-05-06 15:27 38.32471 27.14550 1782 ft 193 kts 346°
2026-05-06 15:27 38.34334 27.14022 2350 ft 231 kts 347°
2026-05-06 15:27 38.35450 27.13724 2618 ft 251 kts 347°
2026-05-06 15:27 38.37177 27.13263 3609 ft 252 kts 347°
2026-05-06 15:28 38.38802 27.12370 4557 ft 258 kts 319°
2026-05-06 15:28 38.39706 27.10462 5712 ft 260 kts 286°
2026-05-06 15:28 38.39639 27.08114 6494 ft 274 kts 258°
2026-05-06 15:28 38.39250 27.05725 7427 ft 277 kts 264°
2026-05-06 15:29 38.39002 27.03275 8387 ft 280 kts 266°
2026-05-06 15:29 38.38809 27.00799 9367 ft 283 kts 268°
2026-05-06 15:29 38.38650 26.98286 10271 ft 287 kts 269°
2026-05-06 15:29 38.38504 26.95672 10790 ft 305 kts 270°
2026-05-06 15:30 38.38361 26.92884 11192 ft 325 kts 270°
2026-05-06 15:30 38.38220 26.89980 11684 ft 339 kts 270°
2026-05-06 15:30 38.38078 26.86940 12395 ft 345 kts 270°
2026-05-06 15:30 38.37937 26.83876 13241 ft 349 kts 270°
2026-05-06 15:31 38.37795 26.80773 14030 ft 352 kts 270°
2026-05-06 15:31 38.37652 26.77642 14765 ft 356 kts 270°
2026-05-06 15:31 38.37507 26.74481 15508 ft 359 kts 270°
2026-05-06 15:32 38.37210 26.68075 16953 ft 365 kts 270°
2026-05-06 15:32 38.37058 26.64833 17662 ft 368 kts 270°
2026-05-06 15:32 38.36903 26.61559 18369 ft 372 kts 270°
2026-05-06 15:32 38.36748 26.58259 18967 ft 375 kts 270°
2026-05-06 15:33 38.36589 26.54930 19555 ft 378 kts 270°
2026-05-06 15:33 38.36428 26.51577 20150 ft 380 kts 271°
2026-05-06 15:33 38.36265 26.48200 20749 ft 383 kts 271°
2026-05-06 15:33 38.36100 26.44802 21321 ft 386 kts 271°
2026-05-06 15:34 38.35933 26.41375 21899 ft 389 kts 271°
2026-05-06 15:34 38.35763 26.37923 22460 ft 392 kts 271°
2026-05-06 15:34 38.35592 26.34443 23012 ft 395 kts 271°
2026-05-06 15:34 38.35418 26.30939 23558 ft 398 kts 271°
2026-05-06 15:35 38.35241 26.27409 24032 ft 400 kts 271°
2026-05-06 15:35 38.35064 26.23864 24480 ft 402 kts 271°
2026-05-06 15:35 38.34922 26.20304 24951 ft 402 kts 275°
2026-05-06 15:35 38.34922 26.16734 25378 ft 404 kts 275°
2026-05-06 15:36 38.35028 26.13162 25797 ft 403 kts 281°
2026-05-06 15:36 38.35309 26.09599 26214 ft 406 kts 280°
2026-05-06 15:36 38.35565 26.06011 26635 ft 408 kts 279°
2026-05-06 15:36 38.35807 26.02406 27071 ft 410 kts 279°